Telfer, Australia

3:14 AM AWST on December 15, 2017 (GMT +0800)
Telfer

Weather History for YTEF - December, 2012

Change the Weather History Date:

Friday, December 28, 2012

  Actual Average Record
Temperature  
Mean Temperature 95 °F -  
Max Temperature 108 °F - - ()
Min Temperature 82 °F - - ()
Cooling Degree Days 30    
Growing Degree Days 45 (Base 50)    
Moisture  
Dew Point 44 °F    
Average Humidity 17    
Maximum Humidity 38    
Minimum Humidity 4    
Precipitation  
Precipitation 0.00 in - - ()
Sea Level Pressure  
Sea Level Pressure 29.73 in    
Wind  
Wind Speed 8 mph ()    
Max Wind Speed 18 mph    
Max Gust Speed -    
T = Trace of Precipitation, MM = Missing Value Source: Averaged Metar Reports

Daily Weather History Graph

Daily Weather History Graph

Search for Another Location

Airport or City:

Trip Planner

Search our weather history database for the weather conditions in past years. The results will help you decide how hot, cold, wet, or windy it might be!

Date:

Astronomy

Dec. 28, 2012 Rise Set
Actual Time 5:09 AM AWST 6:36 PM AWST
Civil Twilight 4:44 AM AWST 7:01 PM AWST
Nautical Twilight 4:14 AM AWST 7:30 PM AWST
Astronomical Twilight 3:43 AM AWST 8:01 PM AWST
Moon 6:25 PM AWST (12/28) 4:50 AM AWST (12/28)
Length of Visible Light 14h 16m
Length of Day
13h 27m
Full, 100% of the Moon is Illuminated
Dec 28
Full
Dec 28
Full
Jan 5
Last Quarter
Jan 12
New
Jan 19
First Quarter

Hourly Weather History & Observations

Time (AWST) Temp. Heat Index Dew Point Humidity Pressure Visibility Wind Dir Wind Speed Gust Speed Precip Events Conditions
12:00 AM 88 °F - 60 °F 28% 29.74 in - West 4.6 mph - -  
12:00 AM 87.8 °F 87.1 °F 59.0 °F 38% 29.80 in - West 4.6 mph - N/A   Unknown
1:00 AM 87.8 °F 87.1 °F 59.0 °F 38% 29.80 in - WSW 6.9 mph - N/A   Unknown
2:00 AM 88 °F - 59 °F 28% 29.70 in - SW 10.4 mph - -  
2:00 AM 87.8 °F 87.1 °F 59.0 °F 38% 29.77 in - SW 10.4 mph - N/A   Unknown
3:00 AM 88 °F - 59 °F 28% 29.70 in - SW 10.4 mph - -  
3:00 AM 87.8 °F 87.1 °F 59.0 °F 38% 29.74 in - SW 10.4 mph - N/A   Unknown
4:00 AM 87.8 °F 87.1 °F 59.0 °F 38% 29.77 in - SW 11.5 mph - N/A   Unknown
5:00 AM 86 °F - 61 °F 33% 29.72 in - WSW 6.9 mph - -  
6:00 AM 87 °F - 52 °F 20% 29.74 in - SE 9.2 mph - -  
6:00 AM 87.8 °F - 51.8 °F 29% 29.80 in - SE 9.2 mph - N/A   Unknown
7:00 AM 91.4 °F - 30.2 °F 11% 29.80 in - SE 16.1 mph - N/A   Unknown
8:00 AM 93 °F - 26 °F 4% 29.75 in - ESE 18.4 mph - -  
9:00 AM 94 °F - 27 °F 4% 29.74 in - SE 17.3 mph - -  
10:00 AM 100.4 °F - 32.0 °F 9% 29.77 in - ESE 15.0 mph - N/A   Unknown
11:00 AM 102 °F - 33 °F 4% 29.70 in - SE 10.4 mph - -  
11:00 AM 102.2 °F - 32.0 °F 9% 29.77 in - SE 10.4 mph - N/A   Unknown
12:00 PM 104.0 °F - 32.0 °F 8% 29.74 in - East 12.7 mph - N/A   Unknown
1:00 PM 107.6 °F - 37.4 °F 9% 29.71 in - East 8.1 mph - N/A   Unknown
2:00 PM 105 °F - 35 °F 4% 29.64 in - SE 6.9 mph - -  
2:00 PM 105.8 °F - 35.6 °F 9% 29.71 in - SE 6.9 mph - N/A   Unknown
3:00 PM 107 °F - 36 °F 4% 29.62 in - NE 9.2 mph - -  
3:00 PM 107.6 °F - 35.6 °F 8% 29.68 in - NE 9.2 mph - N/A   Unknown
4:00 PM 104.0 °F - 37.4 °F 10% 29.68 in - NNE 8.1 mph - N/A   Unknown
5:00 PM 104 °F - 37 °F 5% 29.62 in - North 9.2 mph - -  
5:00 PM 104.0 °F - 37.4 °F 10% 29.68 in - North 9.2 mph - N/A   Unknown
6:00 PM 103 °F - 36 °F 5% 29.65 in - NE 5.8 mph - -  
6:00 PM 104.0 °F - 35.6 °F 9% 29.71 in - NE 5.8 mph - N/A   Unknown
7:00 PM 100.4 °F - 41.0 °F 13% 29.74 in - ENE 5.8 mph - N/A   Unknown
8:00 PM 97 °F - 45 °F 9% 29.69 in - East 6.9 mph - -  
9:00 PM 97 °F - 48 °F 11% 29.71 in - ENE 8.1 mph - -  
9:00 PM 96.8 °F - 48.2 °F 19% 29.77 in - ENE 8.1 mph - N/A   Unknown
10:00 PM 98.6 °F - 50.0 °F 19% 29.77 in - NE 4.6 mph - N/A   Unknown
11:00 PM 95 °F - 56 °F 18% 29.72 in - WNW 9.2 mph - -  
11:00 PM 95.0 °F 93.0 °F 55.4 °F 26% 29.77 in - WNW 9.2 mph - N/A   Unknown